Home   Weather   Tirana   Past weeks
Flag for Albania

Past Weather in Tirana, Albania — Yesterday and Last 2 Weeks

Now
70 °F

Overcast.


Feels Like: 70 °F
Forecast: 78 / 62 °F
Wind: 2 mph from North

Location: Tirana Airport

Current Time: May 26, 2019 at 9:20:00 pm

Latest Report: May 26, 2019 at 8:20 pm


Visibility: N/A

Pressure: 29.95 "Hg

Humidity: 78%

Dew Point: 63 °F

Location of TiranaLocation

Past Weather in Tirana — Graph

°F

Tirana Temperature Yesterday

Maximum temperature yesterday: 77 °F (at 12:50 pm)
Minimum temperature yesterday: 59 °F (at 5:20 am)
Average temperature yesterday: 67 °F

High & Low Weather Summary for the Past Weeks

 TemperatureHumidityPressure
High77 °F (May 25, 12:50 pm)100% (May 12, 11:20 pm)30.04 "Hg (May 12, 11:20 pm)
Low50 °F (May 17, 5:20 am)39% (May 19, 1:20 pm)29.65 "Hg (May 19, 12:20 pm)
Average63 °F78%29.90 "Hg
* Reported May 11 8:20 pm — May 26 8:20 pm, Tirana. Weather by CustomWeather, © 2019

Note: Actual official high and low records may vary slightly from our data, if they occured in-between our weather recording intervals... More about our weather records

Advertising

Tirana Weather History for the Previous 24 Hours

Scroll right to see more
 ConditionsComfort  
Time TempWeatherWind HumidityBarometerVisibility
8:20 pm
Sun, May 26
70 °FOvercast.2 mph78%29.95 "HgN/A
7:50 pm68 °FOvercast.3 mph83%29.95 "HgN/A
7:20 pm70 °FLight rain. Overcast.3 mph78%29.95 "HgN/A
6:50 pm72 °FBroken clouds.5 mph73%29.95 "HgN/A
6:20 pm72 °FBroken clouds.No wind73%29.95 "HgN/A
5:50 pm72 °FPartly sunny.6 mph69%29.95 "HgN/A
5:20 pm72 °FPartly sunny.7 mph69%29.95 "HgN/A
4:50 pm70 °FPartly sunny.8 mph73%29.95 "HgN/A
4:20 pm68 °FOvercast.7 mph73%29.95 "HgN/A
3:50 pm70 °FOvercast.10 mph69%29.95 "HgN/A
3:20 pm70 °FOvercast.10 mph73%29.95 "HgN/A
2:50 pm70 °FMostly cloudy.9 mph73%29.98 "HgN/A
2:20 pm70 °FLight rain. Mostly cloudy.7 mph73%29.98 "HgN/A
1:50 pm72 °FMostly cloudy.7 mph69%29.98 "HgN/A
1:20 pm73 °FMore clouds than sun.5 mph61%29.98 "HgN/A
12:50 pm73 °FPartly sunny.6 mph61%29.98 "HgN/A
12:20 pm73 °FPartly sunny.5 mph57%29.98 "HgN/A
11:50 am73 °FBroken clouds.5 mph61%29.98 "HgN/A
11:20 am73 °FBroken clouds.6 mph53%29.98 "HgN/A
10:50 am72 °FBroken clouds.3 mph61%29.98 "HgN/A
10:20 am72 °FBroken clouds.2 mph57%29.98 "HgN/A
9:20 am68 °FBroken clouds.3 mph69%29.98 "HgN/A
8:50 am68 °FPartly sunny.2 mph69%29.98 "HgN/A
8:20 am66 °FPartly sunny.2 mph73%29.98 "HgN/A
7:50 am64 °FScattered clouds.3 mph83%29.98 "HgN/A
7:20 am63 °FScattered clouds.2 mph83%29.98 "HgN/A
6:50 am61 °FPartly sunny.1 mph88%30.01 "HgN/A
6:20 am61 °FScattered clouds.2 mph88%30.01 "HgN/A
5:50 am59 °FPassing clouds.3 mph94%29.98 "HgN/A
5:20 am57 °FSunny.2 mph94%29.98 "Hg10 mi
4:50 am57 °FClear.2 mph94%29.98 "Hg10 mi
4:20 am57 °FClear.2 mph94%29.98 "Hg10 mi
3:20 am59 °FClear.2 mph94%30.01 "Hg10 mi
2:50 am59 °FClear.2 mph88%30.01 "Hg10 mi
2:20 am57 °FClear.5 mph94%30.01 "Hg10 mi
1:50 am59 °FClear.3 mph94%30.04 "Hg10 mi
1:20 am59 °FClear.1 mph88%30.04 "Hg10 mi
12:50 am59 °FClear.2 mph94%30.04 "Hg10 mi
12:20 am59 °FClear.3 mph94%30.04 "Hg10 mi
11:50 pm
Sat, May 25
59 °FClear.2 mph94%30.04 "Hg10 mi
11:20 pm61 °FClear.1 mph88%30.04 "Hg10 mi
10:50 pm61 °FClear.1 mph88%30.04 "Hg10 mi
10:20 pm63 °FClear.1 mph88%30.01 "Hg10 mi
9:50 pm63 °FClear.2 mph88%30.01 "Hg10 mi
9:20 pm64 °FClear.1 mph83%30.01 "Hg10 mi
Weather by CustomWeather, © 2019

See weather overview